{"data":{"norad_id":69091,"epoch":"2026-06-10T14:07:04.387872Z","epoch_age_seconds":8842501,"freshness":"OLD","line1":"1 69091U 26104U   26161.58824523  .00000245  00000+0  47202-4 0  9990","line2":"2 69091  89.0135 342.2246 0092753   8.0387 352.2283 14.57460029  4252","mean_motion":14.57460029,"eccentricity":0.0092753,"inclination_deg":89.0135,"raan_deg":342.2246,"arg_perigee_deg":8.0387,"mean_anomaly_deg":352.2283,"bstar":4.7202e-5,"rev_number":425,"period_min":98.802023475595,"perigee_km":635.72252140155,"apogee_km":767.05194362925,"semimajor_km":7079.5242325154,"source":"CELESTRAK","updated_at":"2026-06-11T09:00:22.568605Z"}}